SL-14 DEB, 45298

Orbit data source: Space-Track

SL-14 DEB, 45298 is space debris in LEO originally from a launch on Thu, 15 Aug 1991 UTC launched from the Plesetsk Missile And Space Complex (PKMTR). Debris objects in space refer to the collection of defunct objects orbiting the Earth. Examples of debris include non-operational satellites, rocket bodies, and fragments generated from explosions, collisions, or faulty payload assembly.

Loading next visibility...
Identifier
45298, 1991-056AL
Orbit
LEO
Country
Flag of CISCIS
Related business
Manufacturer
Unknown
Mission
Spacecraft
Bus & Motor
Unknown
Mass
Unknown
Launch date (UTC)
1991-08-15 (34 years ago)
Launch vehicle
Unknown
Launch site
Plesetsk Missile And Space Complex (PKMTR)
Object type
Payload
Rocket body
Debris
Shape & HBR
Unknown
Radar Cross Section
Medium (>0.1 m² and <1 m²)

Expand to show TLE details & history
Last TLE update: 21 hours ago

TLE from 21 hours ago
0 SL-14 DEB
1 45298U 91056AL  25259.99245965  .00003554  00000-0  40328-2 0  9997
2 45298  82.5904 243.7521 0175576  71.0714 290.9375 13.63617958274662
Epoch: 2025-09-16T23:49Z
TLE epoch observation values (Epoch: 2025-09-16T23:49:08.513Z)
Latitude
0.00001°
Longitude
-109.70817°
Altitude
981.014 km
Speed
7.383 km/s
True Right ascension
16h 15m 00s
True Declination
0° 00' 00"
Sunlit
Object was in daylight at epoch
Visualization orbit readout
Latitude
Unknown
Longitude
Unknown
Altitude
Unknown
Speed
Unknown
Apparent Right ascension
Unknown
Apparent Declination
Unknown
Sunlit
N/A
Visualization observer readout
Local Sidereal Time
13:23:10
Azimuth
Unknown
Elevation
Unknown
Doppler factor
Unknown
Orbital elements
Apogee altitude
1,149.639 km
Perigee altitude
889.861 km
Semi-major axis
7,397.887 km
Eccentricity
0.01756
Inclination
82.5904°
RAAN
243.7521°
Arg. of periapsis
71.0714°
True anomaly
289.04389°
Mean anomaly
290.9375°
Eccentric anomaly
289.99214°
Mean motion
3.411 °/min
Orbital period
105.54 mins
BSTAR
0.0040328
Loading maneuver chart data...
Computing Atmospheric mass density...
Loading historical data...
Loading historical data...
Loading historical data...
Loading historical data...
Loading historical data...
Loading historical data...
Loading historical data...

Documentation

Showing up to 5 results
|